C/2019 F1 ( ATLAS-Africano )

Japanese version
Home page
Updated on September 17, 2019

---------------------------------------------------------------------

* Profile

Discovery Date March 28 and 29, 2019
Magnitude 18.3 mag, 18.4 mag
Discoverer Asteroid Terrestrial-Impact Last Alert System (ATLAS) search program, B. M. Africano (Mount Lemmon Survey)

* Pictures

* Orbital Elements

Epoch 2021 July 5.0 TT = JDT 2459400.5
T 2021 June 22.85291 TT                                 Williams
q   3.5955664            (2000.0)            P               Q
z  -0.0010393      Peri.  251.13291     +0.09421498     +0.85665275
 +/-0.0000113      Node    38.72484     -0.27687520     +0.51193050
e   1.0037367      Incl.   54.17361     -0.95627593     -0.06382189
From 580 observations 2019 Feb. 8-July 31, mean residual 0".4.

* Finding Charts

* Magnitudes Graph

        m1 = 5.0 + 5 log d + 10.0 log r

---------------------------------------------------------------------

The orbital elements are published on M.P.E.C. 2019-Q135.
The charts are made with StellaNavigator Ver.10 (AstroArts).
The magnitudes graphs are made with Comet for Windows.

---------------------------------------------------------------------

Copyright(C) Seiichi Yoshida (comet@aerith.net). All rights reserved.